Regional Weather Roundup
Issued by NWS

Home | Current Version | Previous Version | Graphics & Text | Print | Product List | Glossary On
Versions: 1 2 3 4 5 6 7 8 9 10 11 12 13 14 15 16 17 18 19 20 21 22 23 24 25 26 27 28 29 30 31 32 33 34 35 36 37 38 39 40 41 42 43 44 45 46 47 48 49 50
483
ASUS45 KBOI 282110
RWRID

IDAHO REGIONAL WEATHER ROUNDUP
NATIONAL WEATHER SERVICE BOISE ID
300 PM MDT THU JUL 28 2016

NOTE: "FAIR" INDICATES FEW OR NO CLOUDS BELOW 12000 FEET
WITH NO SIGNIFICANT WEATHER AND/OR OBSTRUCTIONS TO VISIBILITY

IDZ012-014-282200-
SOUTHWEST IDAHO


CITY           SKY/WX    TMP DP  RH WIND       PRES   REMARKS
BOISE          FAIR      97  41  14 NW12      30.02F HX  92
CALDWELL       FAIR      94  52  24 VRB3      30.01F HX  91
$$

IDZ016-017-282200-
SOUTHCENTRAL IDAHO


CITY           SKY/WX    TMP DP  RH WIND       PRES   REMARKS
BURLEY         FAIR      89  49  25 SW7       30.09F
JEROME         FAIR      92  40  16 SW7       30.10F
TWIN FALLS     FAIR      92  46  20 NW8       30.11F
$$

IDZ019>023-282200-
SOUTHEAST IDAHO


CITY           SKY/WX    TMP DP  RH WIND       PRES   REMARKS
IDAHO FALLS    SUNNY     90  38  16 VRB5      30.14F
POCATELLO      SUNNY     91  38  15 SW12      30.12F
REXBURG        SUNNY     89  37  16 VRB5      30.14F
$$

IDZ006-010-011-018-031-032-282200-
CENTRAL IDAHO MOUNTAINS


CITY           SKY/WX    TMP DP  RH WIND       PRES   REMARKS
MCCALL         FAIR      86  30  13 NW7       30.19F
HAILEY         MOSUNNY   90  41  18 W9          N/A
STANLEY          N/A     86  28  12 NW12G18   30.27F
SALMON         SUNNY     90  45  20 N5        30.07F
CHALLIS        FAIR      91  31  11 NE6       30.12F
$$

IDZ002-004-006-007-026-282200-
NORTHERN IDAHO


CITY           SKY/WX    TMP DP  RH WIND       PRES   REMARKS
LEWISTON       FAIR      97  46  17 VRB3      29.99F HX  93
LOWELL           N/A     96  51  21 VRB3      29.98F HX  93
COEUR D`ALENE  FAIR      90  55  31 SW5       30.04F
MULLAN PASS    FAIR      74  43  32 VRB3      30.30F
$$




USA.gov is the U.S. government's official web portal to all federal, state and local government web resources and services.